www.pogodaiklimat.ru

Погода и климат >> Архив погоды >> Азербайджан >> Шемаха


ПОГОДА в Шемахе

  • Прогноз погоды в Шемахе
  • Монитор погоды в Шемахе

АРХИВ ПОГОДЫ в Шемахе

Время (UTC), дата Ветер
(напр.,м/с)
 
Видим.   Явления Облачность Т
(С)
Тd
(С)
f
(%)
Тe
(С)
Тes
(С)
Комфортность P
(гПа)
Po
(гПа)
Тmin
(С)
Tmax
(С)
R
(мм)
R24
(мм)
S
(см)
18 9.06 З 2 20 км ясно +20.0 +13.3 65 +23 +23 комфорт 1019.4 925.2 +27.7
00 10.06 С 2 20 км ясно +19.1 +16.3 84 +21 +21 комфорт 1019.7 925.5
06 10.06 З 2 20 км 3/0
[Ci fib]
+23.4 +8.1 38 +25 +37 комфорт 1020.0 926.4 +18.9
12 10.06 ЮЗ 1 20 км 4/0
[Ci ing]
+26.0 +9.8 36 +27 +39 жарко 1018.2 925.9
18 10.06 З 2 20 км 10/10 600 м
[Sc]
+21.6 +7.8 41 +23 +23 комфорт 1019.3 925.1 +26.4
00 11.06 СЗ 3 20 км ясно +19.5 +8.6 49 +21 +21 комфорт 1018.8 923.9
06 11.06 ЮЗ 2 20 км ясно +24.2 +8.5 37 +25 +38 комфорт 1017.0 924.1 +19.2
12 11.06 ЮЗ 1 20 км 5/0
[Ci fib]
+26.8 +13.2 43 +29 +41 жарко 1015.9 923.6
18 11.06 Ю 1 20 км 8/8 600 м
[Sc]
+22.2 +9.2 43 +24 +24 комфорт 1016.5 922.9 +27.3
00 12.06 ЮЗ 2 20 км 10/10 600 м
[Sc]
+19.7 +10.7 56 +22 +22 комфорт 1017.6 923.4
06 12.06 Ю 2 20 км 4/0
[Ci ing]
+23.9 +11.3 45 +25 +38 комфорт 1011.8 919.4 +19.4
12 12.06 Ю 3 20 км ясно +28.6 +11.7 35 +29 +39 жарко 1009.2 918.1
18 12.06 С 3 20 км 5/0
[Ci ing]
+21.5 +4.6 33 +22 +22 комфорт 1011.8 918.1 +29.1
00 13.06 С 6 20 км ясно +22.2 +2.9 28 +22 +22 комфорт 1009.7 917.1
06 13.06 ЮЗ 1 20 км 6/6 600 м
[Sc]
+25.4 +7.8 33 +26 +32 жарко 1010.9 918.5 +21.1
12 13.06 СЗ 1 20 км 3/0
[Ci fib]
+28.8 +8.9 29 +29 +41 жарко 1008.5 917.4
18 13.06 ЮЗ 2 20 км 3/0
[Ci fib]
+23.5 +7.0 35 +24 +24 комфорт 1010.9 917.8 +29.2
00 14.06 С 4 20 км 4/0
[Ci ing]
+21.0 +8.2 44 +23 +23 комфорт 1012.7 919.0
06 14.06 З 1 20 км 3/0
[Ci ing]
+27.6 +12.5 39 +29 +44 жарко 1011.8 920.7 +20.7
12 14.06 С 2 20 км {ливн. осадки} 8/8 600 м
[Sc]
+25.2 +12.4 45 +27 +29 жарко 1012.8 920.4
18 14.06 С 5 20 км ясно +24.0 +11.2 45 +25 +25 комфорт 1015.7 922.8 +29.3 0.3
06 15.06 З 2 20 км 3/0
[Ci fib]
+25.1 +8.4 35 +26 +38 жарко 1015.8 922.9 +21.4
12 15.06 З 2 20 км 3/0
[Ci fib]
+28.6 +9.7 31 +29 +40 жарко 1012.8 921.7
18 15.06 Ю 1 20 км ясно +20.7 +12.0 57 +24 +24 комфорт 1014.8 921.1 +29.0
00 16.06 ЮЗ 1 20 км 3/0
[Ci fib]
+20.1 +5.8 39 +22 +22 комфорт 1015.2 921.5
06 16.06 ЮЗ 2 20 км ясно +24.2 +9.5 39 +25 +39 комфорт 1012.1 919.7 +19.8
12 16.06 З 2 20 км ясно +29.0 +9.8 30 +29 +40 жарко 1008.9 917.8

 

Местоположение метеостанции Шемаха (Азербайджан): широта 40.63 долгота 48.63 высота над уровнем моря 892 м.

В архиве по умолчанию представлена погода в Шемахе за последнюю неделю. Архивные данные за месяц целиком и за предыдущие месяцы, начиная с января 2011 года, Вы можете получить, выбрав интересующий диапазон дат из раскрывающегося списка и нажав кнопку "Ввод!".


*Определитесь, кто Вы:
робот инопланетянин человек

Внимание! Время в таблицах - всемирное. Для получения местного времени необходимо прибавить поправку, которая равна 4 ч.

Смотрите также архив погоды в соседних городах и на ближайших метеорологических станциях:

Погода в Маразе (Азербайджан) (28 км)
Погода в Курдамире (Азербайджан) (51 км)
Погода в Геокчае (Азербайджан) (74 км)
Погода в Габале (Азербайджан) (75 км)
Погода в Губе (Азербайджан) (83 км)
Погода в Алате (Азербайджан) (98 км)
Погода в Баку (дендропарк) (Азербайджан) (100 км)
Погода в Ахты (Дагестан, Россия) (119 км)
Погода в Беылагане (Азербайджан) (121 км)
Погода в Касумкенте (Дагестан, Россия) (122 км)

Пояснения к столбцам:

Ветер - указаны скорость ветра в м/с - средняя за 10 мин, порывы в срок и между сроками (в фигурных скобках) и направление, откуда дует ветер: С - северный, СВ - северо-восточный, В - восточный, ЮВ - юго-восточный, Ю - южный, ЮЗ - юго-западный, З - западный, СЗ - северо-западный.
Видимость - горизонтальная дальность видимости в метрах или километрах. При видимости от 1 до 10 км при отсутствии осадков обычно наблюдается дымка, при ухудшении видимости до 1 км и менее - туман. В сухую погоду видимость может ухудшаться дымом, пылью или мглою.
Явления - указаны атмосферные явления, наблюдавшиеся в срок или в последний час перед сроком; фигурными скобками обозначены явления, наблюдавшиеся между сроками (за 1-3 часа до срока); квадратными скобками обозначены град или гололедные отложения с указанием их диаметра в мм.
Облачность - указаны через наклонную черту общая и нижняя облачность в баллах и высота нижней границы облаков в метрах; квадратными скобками обозначены формы облаков: Ci - перистые, Cs - перисто-слоистые, Cc - перисто-кучевые, Ac - высококучевые, As - высокослоистые, Sc - слоисто-кучевые, Ns - слоисто-дождевые, Cu - кучевые, Cb - кучево-дождевые. Подробнее классификацию облаков см. в Атласе облаков (PDF).
T - Температура воздуха - температура, измеренная на высоте 2 м над землей.
Td - Температура точки росы - температура, при понижении до которой содержащийся в воздухе водяной пар достигнет насыщения.
f - Относительная влажность воздуха - влажноcть воздуха, измеренная на высоте 2 м над землей.
Te - Эффективная температура - температура, которую ощущает одетый по сезону человек в тени. Характеристика душности погоды. При расчете учитывается влияние влажности воздуха и скорости ветра на теплоощущения человека.
Tes - Эффективная температура на солнце - температура, которую ощущает человек, с поправкой на солнечный нагрев. Характеристика знойности погоды. Зависит от высоты солнца над горизонтом, облачности и скорости ветра. Ночью, в пасмурную погоду, а также при ветре 12 м/с и более поправка равна нулю.
P - Атмосферное давление - приведенное к уровню моря атмосферное давление.
Po - Атмосферное давление - измеренное на уровне метеостанции атмосферное давление.
Tmin - Минимальная температура - минимум температуры воздуха на высоте 2 м над землей.
Tmax - Максимальная температура - максимум температуры воздуха на высоте 2 м над землей.
R - Количество осадков - Количество выпавших осадков за период времени, мм. При наведении курсора мыши на число - период времени, за который выпало указанное количество осадков.
R24 - Количество осадков - Количество выпавших осадков за 24 часа, мм.
S - Снежный покров - Высота снежного покрова, см. При наведении курсора мыши на число - состояние снежного покрова и степень покрытия местности в баллах.